Weather History for KONO - May, 2012

Change the Weather History Date:

Thursday, May 17, 2012

  Actual Average Record
Temperature  
Mean Temperature 60 °F 60 °F  
Max Temperature 68 °F 75 °F 98 °F (1973)
Min Temperature 51 °F 45 °F 29 °F (1974)
Degree Days  
Heating Degree Days 5 6  
Month to date heating degree days 146 143  
Since 1 July heating degree days 5306 5884  
Cooling Degree Days 0 1  
Month to date cooling degree days 16 12  
Year to date cooling degree days 26 13  
Growing Degree Days 10 (Base 50)    
Moisture  
Dew Point 31 °F    
Average Humidity 37    
Maximum Humidity 57    
Minimum Humidity 16    
Precipitation  
Precipitation T in 0.04 in 0.33 in (1991)
Month to date precipitation 1.16 0.66  
Year to date precipitation 5.42 4.45  
Sea Level Pressure  
Sea Level Pressure 29.82 in    
Wind  
Wind Speed 13 mph (WNW)    
Max Wind Speed 28 mph    
Max Gust Speed 36 mph    
Visibility 10 miles    
Events Rain    
T = Trace of Precipitation, MM = Missing Value Source: NWS Daily Summary

Daily Weather History Graph

Daily Weather History Graph

Search for Another Location

Airport or City:

Trip Planner

Search our weather history database for the weather conditions in past years. The results will help you decide how hot, cold, wet, or windy it might be!

Date:

Astronomy

May. 17, 2012 Rise Set
Actual Time 6:19 AM MDT 9:10 PM MDT
Civil Twilight 5:45 AM MDT 9:44 PM MDT
Nautical Twilight 5:02 AM MDT 10:27 PM MDT
Astronomical Twilight 4:12 AM MDT 11:17 PM MDT
Moon 4:25 AM MDT (5/17) 6:22 PM MDT (5/17)
Length of Visible Light 15h 58m
Length of Day
14h 51m
Waning Crescent, 9% of the Moon is Illuminated
May 17
Waning Crescent
May 20
New
May 28
First Quarter
Jun 4
Full
Jun 11
Last Quarter

Hourly Weather History & Observations

Time (MDT) Temp. Dew Point Humidity Pressure Visibility Wind Dir Wind Speed Gust Speed Precip Events Conditions
12:53 AM 66.9 °F 21.0 °F 17% 29.80 in 10.0 mi WNW 16.1 mph 23.0 mph N/A   Clear
1:53 AM 64.9 °F 18.0 °F 16% 29.81 in 10.0 mi NW 17.3 mph 21.9 mph N/A   Clear
2:53 AM 64.9 °F 19.0 °F 17% 29.81 in 10.0 mi NW 18.4 mph 25.3 mph N/A   Partly Cloudy
3:53 AM 63.0 °F 21.0 °F 20% 29.81 in 10.0 mi NW 19.6 mph 26.5 mph N/A   Clear
4:53 AM 62.1 °F 19.9 °F 20% 29.81 in 10.0 mi NW 23.0 mph - N/A   Clear
5:53 AM 61.0 °F 23.0 °F 23% 29.80 in 10.0 mi NW 20.7 mph 29.9 mph N/A   Clear
6:53 AM 60.1 °F 26.1 °F 27% 29.82 in 10.0 mi NW 12.7 mph - N/A   Scattered Clouds
7:53 AM 60.1 °F 30.0 °F 32% 29.81 in 10.0 mi NW 19.6 mph 26.5 mph N/A   Mostly Cloudy
8:53 AM 60.1 °F 32.0 °F 35% 29.82 in 10.0 mi NW 19.6 mph - N/A   Mostly Cloudy
9:53 AM 61.0 °F 32.0 °F 34% 29.83 in 10.0 mi NW 21.9 mph 28.8 mph N/A   Overcast
10:53 AM 63.0 °F 33.1 °F 33% 29.85 in 10.0 mi WNW 10.4 mph - N/A   Mostly Cloudy
11:53 AM 64.9 °F 30.0 °F 27% 29.85 in 10.0 mi NW 11.5 mph - N/A   Mostly Cloudy
12:53 PM 66.9 °F 32.0 °F 27% 29.84 in 10.0 mi NNW 13.8 mph 18.4 mph N/A   Mostly Cloudy
1:53 PM 68.0 °F 32.0 °F 26% 29.83 in 10.0 mi NNW 12.7 mph - N/A   Scattered Clouds
2:53 PM 66.9 °F 33.1 °F 28% 29.83 in 10.0 mi NNW 10.4 mph - N/A   Mostly Cloudy
3:51 PM 64.4 °F 35.6 °F 34% 29.87 in 10.0 mi West 15.0 mph - N/A   Overcast
3:53 PM 64.9 °F 36.0 °F 34% 29.86 in 10.0 mi West 12.7 mph 21.9 mph N/A   Overcast
4:53 PM 64.0 °F 37.0 °F 37% 29.86 in 10.0 mi West 4.6 mph - 0.00 in Rain Light Rain
5:53 PM 64.9 °F 39.9 °F 40% 29.83 in 10.0 mi SSE 11.5 mph - 0.00 in   Mostly Cloudy
6:53 PM 64.0 °F 39.9 °F 41% 29.81 in 10.0 mi SSE 10.4 mph - N/A   Overcast
7:53 PM 62.1 °F 43.0 °F 50% 29.80 in 10.0 mi SSE 6.9 mph - N/A   Overcast
8:53 PM 61.0 °F 44.1 °F 54% 29.80 in 10.0 mi South 3.5 mph - N/A   Scattered Clouds
9:53 PM 57.0 °F 43.0 °F 59% 29.81 in 10.0 mi Calm Calm - N/A   Clear
10:53 PM 52.0 °F 34.0 °F 50% 29.82 in 10.0 mi NNW 6.9 mph - N/A   Clear
11:53 PM 55.0 °F 21.0 °F 27% 29.83 in 10.0 mi NW 11.5 mph - N/A   Clear